Regional Weather Roundup
Issued by NWS Newport/Morehead, NC

Current Version | Previous Version | Text Only | Print | Product List | Glossary Off
Versions: 1 2 3 4 5 6 7 8 9 10 11 12 13 14 15 16 17 18 19 20 21 22 23 24 25 26 27 28 29 30 31 32 33 34 35 36 37 38 39 40 41 42 43 44 45 46 47 48 49 50
000 ASUS42 KMHX 291522 RWRMHX WEATHER ROUNDUP FOR EASTERN NORTH CAROLINA NATIONAL WEATHER SERVICE NEWPORT/MOREHEAD CITY NC 1000 AM EST THU JAN 29 2015 NOTE: "FAIR" INDICATES FEW OR NO CLOUDS BELOW 12,000 FEET WITH NO SIGNIFICANT WEATHER AND/OR OBSTRUCTIONS TO VISIBILITY NCZ015>017-031-032-045>047-102-103-291600- NORTH COAST CITY SKY/WX TMP DP RH WIND PRES REMARKS EDENTON MOSUNNY 35 19 50 E5 30.37S ELIZABETH CITY PTSUNNY 35 17 47 N3 30.36F KITTY HAWK PTSUNNY 36 23 57 N3 30.34S MANTEO PTSUNNY 36 23 60 N3 30.36S $$ NCZ045>047-081-094-103-104-291600- CENTRAL COAST CITY SKY/WX TMP DP RH WIND PRES REMARKS FRISCO MOSUNNY 38 25 59 VRB3 30.36S SWANQUARTER NOT AVBL $$ NCZ095-097-098-100-101-291600- SOUTHERN COAST CITY SKY/WX TMP DP RH WIND PRES REMARKS BEAUFORT SUNNY 38 23 55 VRB3 30.38F CEDAR ISLAND NOT AVBL JACKSONVILLE MOSUNNY 36 17 46 CALM 30.39R PINEY ISLAND N/A N/A N/A N/A MISG 30.37F WILMINGTON MOSUNNY 39 18 42 NE3 30.39R $$ NCZ011>013-027>030-043-044-078>080-089-090>093-098-291600- COASTAL PLAIN CITY SKY/WX TMP DP RH WIND PRES REMARKS AHOSKIE CLOUDY 30 17 58 CALM 30.37S CLINTON PTSUNNY 35 17 47 SE3 30.39S ELIZABETHTOWN MOSUNNY 38 15 38 SE5 30.37F GOLDSBORO PTSUNNY 35 20 55 CALM 30.36S GREENVILLE PTSUNNY 34 14 44 CALM 30.38S HAVELOCK CLOUDY 38 18 44 NE3 30.39S KENANSVILLE MOSUNNY 35 13 40 SE3 30.40R KINSTON PTSUNNY 34 16 47 CALM 30.39S NEW BERN SUNNY 37 17 44 CALM 30.39S RICHLANDS MOSUNNY 37 16 41 E3 30.39S ROCKY MOUNT CLOUDY 33 15 47 S5 30.37S WASHINGTON MOSUNNY 34 16 46 CALM 30.38S WHITEVILLE SUNNY 38 19 45 CALM 30.38S $$ AMZ130-135-150-152-154-156-158-170-250-252-270-ANZ085-086-088-633-658-670-291600- MARINE OBSERVATIONS STATION/POSITION TIME TEMP WIND PRES WAVE SWELL AIR SEA DIR/SP/G HT/PER HT/PER (UTC) (F) (DEG/KT/KT) (MB) (FT/S) (FT/S) CHESAPEAKE LIGHT 1500 33 50/ 4/ 5 1028.0 64 E VA BEACH 1500 38 48 360/ 12/ 16 1026.7 5/11 5/11 DUCK 1500 35 42 350/ 5/ 7 1027.2 2 E DUCK 1500 42 N/A 4/11 2/11 10 NE DUCK 1500 44 N/A 5/13 2/13 OREGON INLET 1500 37 41 340/ 5/ 9 1027.9 13E OREGON INLT 1500 44 N/A 6/10 3/11 HATTERAS CG 1500 36 44 360/ 8/ 10 1028.5 DIAMOND BUOY 1500 39 71 340/ 12/ 16 1027.9 6/11 5/11 17 S OCRACOKE NOT AVBL CAPE LOOKOUT 1500 37 350/ 4/ 6 1028.6 BEAUFORT LAB 1500 36 45 360/ 4/ 6 1027.7 27 SE WRIGHTSVLE NOT AVBL 5 SE WRIGHTSVLE 1500 42 52 30/ 6/ 8 1028.9 225 S CAPE HAT 1417 56 72 350/ 12/ 17 1027.2 8/ 9 7/ 9 41 SE CHARLESTON 1500 53 67 50/ 4/ 8 1027.9 4/ 9 3/ 9 $$

USA.gov is the U.S. government's official web portal to all federal, state and local government web resources and services.